Flag for U.S.A. Weather past 2 weeks in Barrow, Alaska, U.S.A.

Now
32 °F

Light snow. Ice fog.


Feels Like: 21 °F
Forecast: 31 / 34 °F
Wind: 16 mph from Northeast

Location: Post Rogers Memorial Airport

Current Time: Sep 20, 2014 at 6:53:15 PM

Latest Report: Sep 20, 2014 at 6:00 PM


Visibility: 5 mi

Pressure: 29.70 "Hg

Humidity: 96%

Dew point: 31 °F

Location of BarrowLocation

Historic Weather in Barrow — Graph

°F

Barrow temperature yesterday

Maximum temperature yesterday: 34 °F (at 12:53 AM)
Minimum temperature yesterday: 31 °F (at 9:53 PM)
Average temperature yesterday: 33 °F

Past Weeks' High & Low Weather Summary

 TemperatureHumidityPressure
High50 °F (Sep 7, 3:53 PM)100% (Sep 5, 11:53 PM)30.26 "Hg (Sep 5, 11:53 PM)
Low24 °F (Sep 6, 3:53 AM)39% (Sep 7, 4:53 PM)29.52 "Hg (Sep 17, 6:53 PM)
Average35 °F92%29.91 "Hg
* Reported Sep 5 6:53 PM — Sep 20 6:00 PM, Barrow, Weather by CustomWeather, © 2014

Note: Actual official high and low records may vary slightly from our data, if they occured in-between our weather recording intervals... More about our weather records

Advertising

Barrow weather history for previous 24 hours

 ConditionsComfort  
Time TempWeatherWind HumidityBarometerVisibility
6:00 PM
Sep 20
32 °FLight snow. Ice fog.16 mph96%29.70 "Hg5 mi
5:00 PM32 °FLight snow. Ice fog.20 mph96%29.70 "Hg2 mi
3:53 PM32 °FLight snow. Ice fog.20 mph96%29.70 "Hg1 mi
3:03 PM32 °FLight snow. Ice fog.18 mph96%29.70 "Hg3 mi
2:54 PM32 °FLight snow. Ice fog.18 mph96%29.70 "Hg3 mi
1:53 PM32 °FLight snow. Ice fog.18 mph96%29.70 "Hg3 mi
12:53 PM32 °FLight snow. Ice fog.18 mph96%29.70 "Hg4 mi
11:53 AM32 °FLight snow. Ice fog.22 mph96%29.69 "Hg4 mi
10:54 AM32 °FLight snow. Ice fog.21 mph100%29.69 "Hg2 mi
9:53 AM32 °FLight snow. Ice fog.18 mph96%29.70 "Hg2 mi
5:04 AM31 °FLight snow. Ice fog.22 mph96%29.70 "Hg3 mi
4:53 AM30 °FLight snow. Ice fog.22 mph96%29.70 "Hg3 mi
3:55 AM30 °FLight snow. Ice fog.24 mph96%29.69 "Hg2 mi
2:53 AM31 °FLight snow. Ice fog.22 mph96%29.69 "Hg3 mi
1:53 AM30 °FLight snow. Ice fog.26 mph96%29.70 "Hg1 mi
12:53 AM31 °FLight snow. Ice fog.23 mph96%29.70 "Hg1 mi
11:53 PM
Sep 19
31 °FLight snow. Ice fog.25 mph96%29.70 "Hg1 mi
10:53 PM31 °FLight snow. Ice fog.23 mph96%29.69 "Hg2 mi
9:53 PM31 °FLight snow. Ice fog.22 mph100%29.69 "Hg1 mi
8:53 PM32 °FLight snow. Ice fog.21 mph88%29.68 "Hg6 mi
7:53 PM32 °FLight snow. Ice fog.24 mph92%29.68 "Hg1 mi
6:53 PM32 °FLight snow. Fog.26 mph96%29.68 "Hg1 mi
Weather by CustomWeather, © 2014

See weather overviewHow to use our weather pages